Starlink 32106

operational
NORAD ID: 59690 Int'l Des: 2024-086 Owner: SPXS Country: US Constellation: starlink
LEOCIRCULAR

关于 Starlink 32106

正在加载描述...

实时位置

正在加载3D地球...

即将过境

高度历史

Altitude vs Time

uPlot chart will show altitude changes over time

两行轨道根数

1 59690U 24086J 25257.49295026 -.00001169 00000-0 -32963-4 0 9993
2 59690 43.0036 327.3126 0000809 255.5308 104.5454 15.27576771 77258
Epoch: Sep 14, 2025 • Age: 19 hours

当前状态

高度 494.4 km
速度 7.62 km/s
星下点 -39.40°S, 171.86°E
发射日期 May 8, 2024
运行时间 1.3 years
类型 internet

技术详情

分类 Payload
质量 730.00 kg
干质量 700.00 kg
总质量 730.00 kg
长度 0.30 m
直径 4.10 m
跨度 29.00 m
形状 Box + pan
制造商 SPXS
平台类型 Starlink V2M
阶段状态 In Orbit
所有者/国家 SPXS/US

大型星座

Loading constellations...